Dewpoint
73 71 69 65 61 59 51 50 52 52 52 54 57 61 58 63 54 56 65 68 69 69 71 72 75 75 75 76 76 76 77 77 77 77 77 77 77 77 77 76 76 75 75 74 74 74 74 73 73
69 68 70 65 57 51 48 50 55 54 51 58 60 62 56 56 59 63 66 67 66 66 67 69 76 75 75 76 76 76 76 76 76 77 77 77 77 76 76 75 75 74 74 74 74 74 74 74 73
67 67 67 64 50 51 47 50 48 51 54 53 56 62 57 59 61 63 65 65 65 66 70 73 76 76 76 76 76 76 76 76 76 76 76 76 76 75 75 74 74 74 74 74 74 74 74 74 73
68 66 63 55 44 50 46 45 47 47 52 54 54 55 58 61 62 64 64 64 66 68 69 74 76 76 76 76 76 76 76 76 76 76 76 75 74 74 74 74 73 73 73 73 74 74 74 74 73
68 65 56 37 40 45 45 50 50 47 52 54 55 56 59 61 62 63 64 66 67 67 70 72 76 76 76 76 76 76 75 75 76 76 75 75 74 74 74 73 72 72 73 73 74 74 73 73 73
61 57 50 30 32 41 43 50 49 47 51 54 55 58 59 61 64 64 65 66 66 67 69 72 76 76 76 76 76 75 74 74 75 75 74 74 74 74 73 72 72 72 73 74 74 73 73 72 71
54 51 41 27 31 36 39 41 45 45 49 51 57 57 58 60 63 63 63 65 65 67 70 73 73 75 76 76 75 75 74 75 74 74 74 74 74 73 73 72 72 72 73 73 73 72 72 72 71
53 50 42 32 30 31 38 41 41 42 49 52 56 54 56 60 63 62 64 66 65 67 69 72 74 74 75 73 75 74 74 74 74 73 73 73 73 74 73 74 74 72 72 72 72 72 71 72 72
58 53 42 36 31 33 38 37 43 47 46 51 53 55 57 58 59 62 64 63 65 66 67 69 70 74 74 73 72 74 74 74 73 73 74 75 74 74 72 75 74 72 72 72 72 73 74 74 75
57 52 43 44 38 34 38 38 41 42 45 47 54 56 57 57 58 58 63 63 64 66 65 68 67 69 72 68 74 74 72 71 72 73 76 74 73 74 73 73 73 71 72 72 74 75 73 75 72
53 52 47 45 41 36 36 37 39 43 43 47 53 56 57 56 57 56 62 62 66 67 66 67 70 71 69 73 72 72 71 71 72 76 75 76 73 73 71 73 76 74 75 73 74 72 68 71 72
48 47 45 40 36 39 36 37 37 43 43 47 54 57 58 56 55 54 59 60 66 66 67 66 72 74 73 72 70 70 70 71 70 72 76 77 75 74 74 72 75 75 74 74 74 72 73 72 72
32 45 42 32 33 36 38 38 36 39 44 47 53 56 57 57 56 55 56 60 65 65 66 69 72 75 77 76 73 71 72 69 70 73 74 74 74 72 74 75 74 75 74 73 73 75 73 72 72
28 30 32 29 29 32 39 39 37 38 43 47 51 54 55 56 56 58 58 60 64 65 65 68 70 74 76 77 79 78 75 75 69 72 73 76 76 77 74 75 75 75 74 73 75 76 76 74 73
26 27 28 28 29 32 37 38 38 40 43 47 50 53 54 55 56 58 59 61 64 64 66 68 70 73 75 76 76 77 75 71 74 72 75 76 78 77 78 77 75 75 76 73 76 76 75 74 71
23 25 26 28 29 32 34 39 37 41 41 45 50 51 53 54 54 58 59 62 64 65 69 70 65 70 74 76 76 73 71 73 74 74 72 73 77 77 78 75 74 74 74 75 74 74 74 71 67
22 22 25 29 30 33 32 45 45 43 41 44 48 50 51 54 55 58 58 61 64 67 70 69 70 69 73 76 75 75 75 74 76 72 73 75 77 76 77 75 74 76 75 75 74 74 71 69 67
21 22 25 29 31 32 34 47 45 44 41 43 45 49 51 52 53 58 58 60 62 65 69 71 70 75 75 74 76 77 74 77 73 75 75 74 76 77 75 74 74 76 75 75 74 72 71 68 67
21 24 25 29 36 32 39 51 52 51 43 39 44 46 48 51 54 57 58 60 62 65 69 71 73 76 76 75 73 73 73 74 73 74 73 75 77 77 77 76 76 76 75 74 72 70 68 67 68
22 24 27 29 39 38 34 45 49 47 45 42 42 45 47 49 52 57 60 60 62 66 69 72 73 77 76 74 75 73 72 72 71 72 76 75 76 77 76 75 75 75 72 71 70 69 68 67 69
22 23 27 29 32 33 32 33 35 42 45 45 44 44 45 48 49 56 59 60 62 65 70 72 74 76 75 77 75 75 76 77 73 74 73 74 76 76 75 76 76 75 73 71 71 70 69 66 69
21 22 24 25 30 31 36 30 41 40 45 44 43 44 44 47 49 50 56 61 61 65 69 73 75 75 76 75 76 75 71 72 72 74 73 74 75 74 75 76 74 74 72 72 71 70 69 69 66
21 23 23 23 26 34 39 34 38 42 43 44 43 43 43 46 47 48 53 59 61 64 67 72 75 76 76 77 76 75 75 70 72 72 75 76 76 75 73 74 75 73 70 73 70 70 70 70 68
18 20 22 22 25 29 35 35 37 40 43 42 43 44 47 46 48 49 52 58 61 63 66 69 75 76 76 77 76 76 75 73 73 74 72 72 72 73 74 74 73 73 71 72 71 70 70 70 70
10 15 20 22 24 24 31 37 40 40 41 40 43 45 46 48 48 51 52 55 61 63 65 69 74 76 77 76 77 76 77 76 76 78 71 70 68 69 73 75 73 72 72 73 72 71 71 69 69
9 12 20 25 23 23 26 26 36 42 41 42 45 46 43 47 50 52 55 55 61 63 66 68 74 76 77 76 77 78 77 76 74 75 73 70 69 69 72 73 72 73 71 72 71 70 69 69 69
10 12 12 16 22 22 23 27 29 39 38 43 41 39 38 47 49 51 54 56 58 63 66 68 74 76 77 77 77 78 77 76 74 76 75 73 72 74 72 72 72 71 72 71 71 67 68 69 70
9 12 11 14 23 26 24 30 31 40 43 43 39 38 36 42 47 50 50 55 58 61 65 68 72 75 76 77 77 76 77 76 75 76 76 73 76 74 73 72 72 71 71 71 70 69 70 68 69
11 9 11 12 18 22 25 27 33 39 43 42 40 39 37 34 44 49 51 53 58 60 63 67 69 74 76 76 77 77 77 77 76 75 75 74 75 74 73 72 71 70 70 71 70 69 70 69 69
13 13 13 16 28 23 25 26 27 34 38 41 39 39 37 39 37 45 50 53 55 58 60 64 67 69 74 75 76 77 77 77 76 75 75 75 74 76 74 72 71 70 69 70 69 68 67 68 68
Lifted_Index
-3 -3 -3 -2 -1 -2 -2 -2 -2 -2 -1 -1 -1 -1 -1 -1 -1 -1 -1 -2 -2 -2 -2 -2 -3 -4 -4 -4 -4 -5 -5 -5 -6 -6 -7 -7 -7 -6 -6 -6 -6 -6 -5 -6 -6 -6 -6 -6 -6
-3 -3 -3 -2 -1 -1 -2 -2 -2 -2 -1 -1 -1 -1 -1 -1 -1 -1 -2 -1 -1 -1 -2 -2 -3 -4 -4 -4 -5 -5 -5 -5 -6 -6 -6 -7 -7 -6 -6 -6 -6 -5 -5 -6 -6 -6 -6 -6 -6
-4 -4 -4 -3 -2 -1 -2 -2 -2 -1 -1 -1 -1 -1 -1 -1 -1 -2 -2 -1 -1 -2 -2 -3 -4 -4 -4 -5 -5 -5 -5 -5 -6 -6 -6 -6 -6 -6 -6 -6 -5 -5 -5 -6 -6 -6 -6 -6 -6
-5 -5 -5 -4 -2 -2 -2 -2 -1 -1 -1 -2 -1 -2 -2 -2 -2 -2 -2 -2 -2 -2 -3 -3 -4 -4 -5 -5 -5 -5 -5 -5 -6 -6 -6 -6 -6 -6 -6 -6 -5 -5 -5 -6 -6 -6 -6 -6 -6
-4 -4 -4 -3 -2 -2 -2 -1 -1 -1 -1 -2 -2 -2 -2 -2 -2 -2 -2 -2 -3 -3 -3 -4 -4 -5 -5 -5 -6 -6 -6 -5 -6 -6 -6 -6 -6 -6 -6 -6 -6 -6 -6 -6 -6 -6 -6 -6 -6
-4 -4 -3 -1 -1 -1 -1 -1 -1 -1 -1 -1 -2 -2 -2 -2 -2 -2 -2 -3 -3 -3 -3 -4 -5 -5 -5 -5 -5 -5 -5 -5 -6 -6 -6 -6 -6 -6 -6 -6 -6 -6 -6 -6 -6 -6 -6 -5 -5
-3 -3 -2 -0 1 1 0 -0 -1 -0 -1 -1 -2 -2 -2 -2 -3 -3 -3 -3 -3 -4 -4 -4 -5 -5 -5 -5 -5 -5 -5 -5 -6 -6 -6 -7 -6 -6 -6 -6 -6 -6 -6 -6 -6 -6 -6 -5 -5
-2 -2 -2 -1 1 2 1 0 0 0 -0 -1 -2 -2 -2 -2 -3 -3 -3 -3 -3 -4 -4 -5 -5 -5 -5 -5 -5 -5 -5 -5 -5 -6 -6 -6 -6 -6 -6 -6 -6 -6 -6 -6 -6 -6 -5 -5 -5
-1 -1 -1 -1 0 1 1 1 1 1 -0 -1 -1 -2 -2 -2 -2 -3 -3 -3 -3 -3 -4 -4 -4 -5 -5 -4 -4 -5 -5 -5 -5 -5 -6 -6 -6 -5 -5 -5 -5 -5 -5 -5 -5 -5 -5 -5 -5
-1 -1 -1 -1 -0 0 1 1 1 1 0 -1 -1 -2 -2 -2 -2 -2 -3 -3 -3 -3 -4 -4 -4 -4 -4 -4 -4 -4 -4 -4 -4 -5 -5 -6 -5 -5 -5 -5 -5 -5 -5 -5 -5 -4 -4 -5 -5
-1 -1 -0 -1 -1 -0 0 1 1 1 0 -0 -1 -2 -2 -2 -2 -2 -3 -3 -3 -4 -4 -4 -4 -4 -4 -4 -4 -4 -4 -4 -5 -5 -5 -6 -5 -5 -5 -5 -5 -5 -5 -5 -5 -4 -3 -4 -5
-1 -1 -0 -1 -1 -1 -0 0 1 0 -0 -0 -1 -2 -2 -2 -2 -1 -2 -3 -3 -4 -4 -4 -5 -5 -5 -5 -5 -5 -5 -4 -5 -5 -5 -5 -5 -5 -4 -4 -5 -5 -5 -5 -5 -4 -4 -4 -5
-1 -1 -0 -0 -1 -1 -1 -0 0 0 0 -0 -1 -2 -2 -2 -2 -1 -2 -3 -3 -4 -4 -4 -5 -5 -6 -5 -5 -5 -5 -4 -4 -5 -5 -5 -5 -5 -5 -5 -5 -5 -5 -5 -5 -5 -5 -5 -5
-1 -1 -0 -0 -0 -0 -1 -1 0 1 1 -0 -1 -1 -2 -2 -2 -2 -2 -2 -3 -3 -3 -4 -5 -6 -6 -6 -6 -6 -5 -4 -4 -4 -5 -5 -5 -5 -5 -5 -5 -5 -5 -5 -5 -6 -6 -6 -6
-0 -1 -1 -0 -0 -0 -1 -1 -0 1 1 -0 -1 -1 -1 -1 -2 -2 -2 -2 -3 -3 -3 -4 -5 -5 -6 -6 -6 -6 -5 -4 -4 -4 -5 -6 -6 -6 -6 -6 -5 -5 -5 -5 -6 -6 -6 -5 -5
0 -0 -1 -0 -0 -0 -0 -0 -0 0 0 0 -0 -1 -1 -1 -1 -1 -2 -2 -3 -3 -4 -4 -4 -5 -6 -6 -6 -6 -5 -5 -5 -5 -5 -5 -6 -6 -6 -6 -5 -5 -5 -5 -5 -5 -5 -4 -3
1 -0 -1 -1 -0 0 0 -0 -1 -0 -0 0 0 -0 -0 -0 -1 -1 -1 -2 -2 -3 -4 -4 -4 -5 -6 -6 -6 -6 -6 -5 -5 -5 -5 -5 -6 -6 -5 -5 -5 -5 -5 -5 -4 -4 -3 -2 -1
1 -0 -1 -1 -0 -0 -0 -0 -0 -1 -0 0 1 1 0 0 -0 -1 -1 -2 -2 -3 -4 -4 -4 -5 -6 -6 -6 -6 -6 -6 -5 -5 -5 -5 -6 -6 -5 -5 -5 -5 -5 -4 -4 -3 -2 -1 -0
1 -0 -1 -1 -0 -0 -1 -1 -0 -1 -1 0 1 1 1 1 0 -1 -1 -1 -2 -2 -3 -4 -5 -6 -6 -6 -6 -6 -6 -6 -5 -5 -5 -5 -6 -6 -5 -5 -5 -5 -5 -4 -3 -1 -0 0 -0
1 0 -1 -1 -1 -1 -1 -1 -1 -1 -1 -0 1 1 1 1 0 -0 -1 -1 -2 -2 -3 -4 -5 -6 -6 -6 -6 -6 -6 -6 -5 -5 -5 -5 -6 -6 -5 -5 -5 -5 -4 -3 -2 -0 0 0 -0
2 1 -0 -1 -1 -0 -1 -1 -1 -1 -1 -1 0 1 1 1 1 0 -1 -1 -1 -2 -3 -4 -5 -6 -6 -6 -6 -6 -6 -5 -5 -5 -5 -6 -6 -6 -6 -5 -5 -4 -3 -2 -1 -0 0 0 -0
2 1 0 -1 -1 -1 -1 -1 -1 -1 -1 -1 0 1 1 1 1 1 -0 -1 -2 -2 -4 -5 -5 -6 -6 -6 -6 -6 -6 -5 -5 -5 -5 -6 -6 -5 -5 -5 -4 -3 -2 -2 -1 -1 -0 -0 -0
2 1 0 -1 -1 -1 -1 -1 -1 -1 -1 -1 -0 0 0 1 1 1 0 -1 -2 -3 -4 -5 -6 -6 -7 -7 -7 -6 -6 -5 -5 -5 -5 -5 -5 -5 -5 -4 -4 -2 -2 -2 -1 -1 -1 -1 -0
2 1 -0 -1 -1 -1 -1 -1 -1 -1 -1 -1 -1 -1 -1 -0 -0 0 -0 -1 -2 -3 -4 -5 -7 -7 -7 -7 -7 -7 -6 -6 -5 -5 -5 -4 -4 -4 -4 -4 -3 -2 -1 -2 -2 -1 -1 -1 -1
1 0 -1 -1 -1 -1 -1 -1 -1 -1 -1 -1 -1 -1 -1 -2 -1 -1 -2 -2 -3 -4 -5 -6 -7 -8 -8 -8 -8 -8 -8 -7 -6 -6 -5 -4 -4 -4 -4 -4 -4 -2 -2 -2 -2 -2 -2 -1 -1
2 1 -0 -1 -1 -1 -1 -1 -1 -0 -0 -0 -0 -0 -1 -2 -2 -2 -3 -3 -4 -5 -5 -6 -7 -8 -9 -9 -9 -9 -8 -8 -7 -7 -6 -5 -4 -4 -5 -5 -4 -3 -3 -3 -3 -3 -2 -2 -2
2 2 1 -0 -1 -1 -1 -1 -1 -0 -0 -0 -0 -0 -1 -2 -3 -3 -3 -4 -4 -5 -5 -6 -8 -9 -9 -9 -9 -9 -9 -8 -8 -7 -6 -5 -5 -5 -5 -5 -5 -4 -4 -4 -3 -3 -2 -2 -2
3 3 1 -0 -1 -1 -1 -1 -1 -1 -0 -0 -0 -0 -1 -2 -3 -3 -3 -4 -4 -5 -6 -6 -8 -9 -9 -9 -9 -9 -9 -9 -8 -8 -7 -6 -6 -5 -6 -6 -5 -4 -4 -4 -3 -2 -2 -3 -3
3 3 2 0 -1 -1 -1 -1 -1 -1 -1 -1 -0 -0 -0 -1 -2 -3 -3 -3 -4 -5 -5 -6 -7 -8 -9 -9 -9 -9 -9 -9 -9 -8 -8 -7 -6 -6 -6 -6 -5 -5 -4 -4 -3 -2 -2 -3 -3
3 3 2 1 -0 -1 -1 -1 -1 -1 -1 -1 -0 0 1 0 -1 -2 -3 -3 -3 -4 -5 -6 -7 -8 -9 -9 -8 -9 -9 -9 -9 -8 -8 -8 -7 -7 -7 -6 -5 -5 -5 -4 -3 -2 -2 -2 -2